| time (UTC) | temp C | wind direction | speed KPH | gust KPH | rain 1hr cm | rain 24hr cm | rain mn cm | humidity % | barometer mb |
| 20260902123013 | 9 | 200 | 0.0 | 0.0 | 0.00 | 0.00 | 0.00 | 91 | 1005.0 |
| 20260902121516 | 10 | 200 | 0.0 | 1.6 | 0.00 | 0.00 | 0.00 | 91 | 1005.1 |
| 20260902120003 | 10 | 220 | 0.0 | 1.6 | 0.00 | 0.00 | 0.00 | 91 | 1005.2 |
| 20260902114509 | 10 | 220 | 0.0 | 0.0 | 0.00 | 0.00 | 0.00 | 90 | 1005.4 |
| 20260902113010 | 10 | 220 | 0.0 | 0.0 | 0.00 | 0.00 | 0.00 | 90 | 1005.8 |
| 20260902111513 | 11 | 220 | 0.0 | 0.0 | 0.00 | 0.00 | 0.00 | 90 | 1005.9 |
| 20260902110122 | 11 | 220 | 0.0 | 0.0 | 0.00 | 0.00 | 0.00 | 90 | 1005.9 |
| 20260902104502 | 11 | 220 | 0.0 | 0.0 | 0.00 | 0.00 | 0.00 | 90 | 1006.0 |
| 20260902091540 | 11 | 221 | 0.0 | 0.0 | 0.00 | 0.00 | 0.00 | 90 | 1007.0 |
| 20260902090039 | 11 | 220 | 0.0 | 0.0 | 0.00 | 0.00 | 0.00 | 90 | 1007.0 |
| 20260902084524 | 11 | 221 | 0.0 | 0.0 | 0.00 | 0.00 | 0.00 | 90 | 1007.2 |
| 20260902083039 | 12 | 221 | 0.0 | 0.0 | 0.00 | 0.00 | 0.00 | 90 | 1007.2 |
| 20260902081530 | 12 | 221 | 1.6 | 3.2 | 0.00 | 0.00 | 0.00 | 90 | 1007.5 |
| 20260902080043 | 12 | 222 | 0.0 | 0.0 | 0.00 | 0.00 | 0.00 | 90 | 1007.4 |
| 20260902074528 | 12 | 222 | 0.0 | 0.0 | 0.00 | 0.00 | 0.00 | 89 | 1007.6 |
| 20260902073032 | 13 | 222 | 0.0 | 0.0 | 0.00 | 0.00 | 0.00 | 88 | 1007.7 |
| 20260902071534 | 13 | 222 | 0.0 | 0.0 | 0.00 | 0.00 | 0.00 | 88 | 1007.9 |
| 20260902070045 | 14 | 222 | 0.0 | 0.0 | 0.00 | 0.00 | 0.00 | 87 | 1007.9 |
| 20260902064534 | 15 | 222 | 0.0 | 0.0 | 0.00 | 0.00 | 0.00 | 87 | 1008.0 |
| 20260902063037 | 15 | 222 | 0.0 | 0.0 | 0.00 | 0.00 | 0.00 | 87 | 1008.0 |
| 20260902061553 | 15 | 222 | 0.0 | 0.0 | 0.00 | 0.00 | 0.00 | 86 | 1008.1 |
| 20260902054539 | 15 | 222 | 0.0 | 0.0 | 0.00 | 0.00 | 0.00 | 86 | 1008.3 |
| 20260902053040 | 15 | 222 | 0.0 | 0.0 | 0.00 | 0.00 | 0.00 | 86 | 1008.4 |
| 20260902051544 | 15 | 222 | 0.0 | 0.0 | 0.00 | 0.00 | 0.00 | 85 | 1008.6 |
| 20260902050054 | 16 | 221 | 0.0 | 0.0 | 0.00 | 0.00 | 0.00 | 85 | 1008.7 |
| 20260902044533 | 16 | 221 | 0.0 | 0.0 | 0.00 | 0.00 | 0.00 | 85 | 1008.7 |
| 20260902043044 | 16 | 222 | 0.0 | 0.0 | 0.00 | 0.00 | 0.00 | 85 | 1008.8 |
| 20260902041541 | 16 | 221 | 0.0 | 0.0 | 0.00 | 0.00 | 0.00 | 85 | 1008.9 |
| 20260902040044 | 16 | 221 | 0.0 | 0.0 | 0.00 | 0.00 | 0.00 | 84 | 1008.8 |
| 20260902034530 | 16 | 221 | 0.0 | 0.0 | 0.00 | 0.00 | 0.00 | 83 | 1008.7 |
| 20260902033036 | 16 | 221 | 0.0 | 0.0 | 0.00 | 0.00 | 0.00 | 83 | 1008.6 |
| 20260902031540 | 16 | 221 | 0.0 | 0.0 | 0.00 | 0.00 | 0.00 | 82 | 1008.5 |
| 20260902030040 | 16 | 221 | 0.0 | 0.0 | 0.00 | 0.00 | 0.00 | 81 | 1008.6 |
| 20260902024525 | 17 | 221 | 0.0 | 0.0 | 0.00 | 0.00 | 0.00 | 80 | 1008.7 |
| 20260902023039 | 17 | 221 | 0.0 | 0.0 | 0.00 | 0.00 | 0.00 | 79 | 1008.8 |
| 20260902021542 | 17 | 221 | 0.0 | 0.0 | 0.00 | 0.00 | 0.00 | 78 | 1008.8 |
| 20260902020046 | 17 | 221 | 0.0 | 0.0 | 0.00 | 0.00 | 0.00 | 78 | 1008.8 |
| 20260902014533 | 17 | 221 | 0.0 | 0.0 | 0.00 | 0.00 | 0.00 | 78 | 1008.9 |
| 20260902013035 | 17 | 221 | 0.0 | 1.6 | 0.00 | 0.00 | 0.00 | 78 | 1008.9 |
| 20260902011551 | 17 | 221 | 0.0 | 1.6 | 0.00 | 0.00 | 0.00 | 78 | 1008.9 |
| 20260902010043 | 17 | 221 | 0.0 | 0.0 | 0.00 | 0.00 | 0.00 | 78 | 1008.8 |
| 20260902004532 | 17 | 221 | 0.0 | 1.6 | 0.00 | 0.00 | 0.00 | 78 | 1008.9 |
| 20260902003031 | 17 | 221 | 0.0 | 1.6 | 0.00 | 0.00 | 0.00 | 78 | 1008.9 |
| 20260902001534 | 16 | 221 | 0.0 | 0.0 | 0.00 | 0.00 | 0.00 | 78 | 1008.9 |
| 20260902000020 | 16 | 221 | 0.0 | 0.0 | 0.00 | 0.00 | 0.00 | 78 | 1009.0 |
| 20260901234532 | 16 | 221 | 0.0 | 0.0 | 0.00 | 0.00 | 0.00 | 78 | 1009.0 |
| 20260901233036 | 16 | 219 | 0.0 | 4.8 | 0.00 | 0.00 | 0.00 | 77 | 1009.0 |
| 20260901231547 | 17 | 238 | 0.0 | 4.8 | 0.00 | 0.00 | 0.00 | 77 | 1009.0 |
| 20260901230046 | 17 | 245 | 1.6 | 4.8 | 0.00 | 0.00 | 0.00 | 76 | 1009.1 |
| 20260901224528 | 17 | 212 | 3.2 | 8.0 | 0.00 | 0.00 | 0.00 | 76 | 1009.1 |
| 20260901223029 | 17 | 251 | 1.6 | 6.4 | 0.00 | 0.00 | 0.00 | 77 | 1009.1 |
| 20260901221559 | 17 | 233 | 1.6 | 9.7 | 0.00 | 0.00 | 0.00 | 76 | 1009.3 |
| 20260901220018 | 17 | 216 | 3.2 | 6.4 | 0.00 | 0.00 | 0.00 | 77 | 1009.3 |
| 20260901214519 | 17 | 254 | 0.0 | 6.4 | 0.00 | 0.00 | 0.00 | 78 | 1009.4 |
| 20260901213024 | 17 | 234 | 1.6 | 6.4 | 0.00 | 0.00 | 0.00 | 77 | 1009.5 |
| 20260901211527 | 17 | 203 | 0.0 | 9.7 | 0.00 | 0.00 | 0.00 | 77 | 1009.7 |
| 20260901210008 | 17 | 238 | 3.2 | 9.7 | 0.00 | 0.00 | 0.00 | 75 | 1009.7 |
| 20260901204516 | 18 | 193 | 8.0 | 16.1 | 0.00 | 0.00 | 0.00 | 73 | 1009.8 |
| 20260901203015 | 18 | 231 | 4.8 | 19.3 | 0.00 | 0.00 | 0.00 | 71 | 1009.8 |
| 20260901201519 | 20 | 226 | 3.2 | 9.7 | 0.00 | 0.00 | 0.00 | 68 | 1009.7 |
| 20260901200011 | 19 | 325 | 4.8 | 12.9 | 0.00 | 0.00 | 0.00 | 71 | 1009.6 |
| 20260901194507 | 20 | 216 | 1.6 | 8.0 | 0.00 | 0.00 | 0.00 | 68 | 1009.6 |
| 20260901193011 | 20 | 204 | 1.6 | 8.0 | 0.00 | 0.00 | 0.00 | 70 | 1009.7 |
| 20260901191521 | 19 | 231 | 3.2 | 8.0 | 0.00 | 0.00 | 0.00 | 69 | 1009.8 |
| 20260901190025 | 18 | 211 | 3.2 | 8.0 | 0.00 | 0.00 | 0.00 | 73 | 1009.8 |
| 20260901184525 | 18 | 184 | 4.8 | 9.7 | 0.00 | 0.00 | 0.00 | 75 | 1009.7 |
| 20260901183042 | 17 | 237 | 3.2 | 9.7 | 0.00 | 0.00 | 0.00 | 79 | 1009.7 |
| 20260901181531 | 17 | 219 | 4.8 | 8.0 | 0.00 | 0.00 | 0.00 | 78 | 1009.8 |
| 20260901180018 | 16 | 186 | 3.2 | 11.3 | 0.00 | 0.00 | 0.00 | 83 | 1009.8 |
| 20260901174519 | 15 | 211 | 3.2 | 14.5 | 0.00 | 0.00 | 0.00 | 87 | 1009.8 |
| 20260901173023 | 14 | 248 | 8.0 | 14.5 | 0.00 | 0.00 | 0.00 | 87 | 1009.8 |
| 20260901171527 | 14 | 176 | 3.2 | 12.9 | 0.00 | 0.00 | 0.00 | 89 | 1009.8 |
| 20260901170012 | 13 | 203 | 1.6 | 6.4 | 0.00 | 0.00 | 0.00 | 89 | 1009.8 |
| 20260901164516 | 13 | 253 | 3.2 | 8.0 | 0.00 | 0.00 | 0.00 | 89 | 1009.6 |
| 20260901163019 | 13 | 207 | 1.6 | 4.8 | 0.00 | 0.00 | 0.00 | 90 | 1009.6 |
| 20260901161529 | 13 | 252 | 1.6 | 8.0 | 0.00 | 0.00 | 0.00 | 90 | 1009.7 |
| 20260901160008 | 13 | 240 | 1.6 | 8.0 | 0.00 | 0.00 | 0.00 | 90 | 1009.7 |
| 20260901154511 | 12 | 252 | 0.0 | 3.2 | 0.00 | 0.00 | 0.00 | 90 | 1009.8 |
| 20260901153020 | 12 | 233 | 0.0 | 0.0 | 0.00 | 0.00 | 0.00 | 91 | 1009.8 |
| 20260901151533 | 11 | 216 | 0.0 | 0.0 | 0.00 | 0.00 | 0.00 | 91 | 1009.7 |
| 20260901150002 | 10 | 216 | 0.0 | 0.0 | 0.00 | 0.00 | 0.00 | 91 | 1009.5 |
| 20260901144506 | 10 | 216 | 0.0 | 0.0 | 0.00 | 0.00 | 0.00 | 91 | 1009.4 |
| 20260901143010 | 10 | 216 | 0.0 | 0.0 | 0.00 | 0.00 | 0.00 | 91 | 1009.2 |
| 20260901141513 | 9 | 216 | 0.0 | 0.0 | 0.00 | 0.00 | 0.00 | 91 | 1009.2 |
| 20260901140005 | 8 | 216 | 0.0 | 0.0 | 0.00 | 0.00 | 0.00 | 91 | 1009.1 |
| 20260901134517 | 8 | 216 | 0.0 | 0.0 | 0.00 | 0.00 | 0.00 | 91 | 1008.9 |
| 20260901133020 | 8 | 216 | 0.0 | 0.0 | 0.00 | 0.00 | 0.00 | 91 | 1008.9 |
| 20260901131512 | 7 | 216 | 0.0 | 0.0 | 0.00 | 0.00 | 0.00 | 91 | 1008.8 |
| 20260901130112 | 7 | 216 | 0.0 | 0.0 | 0.00 | 0.00 | 0.00 | 91 | 1008.8 |
| 20260901124601 | 7 | 216 | 0.0 | 0.0 | 0.00 | 0.00 | 0.00 | 91 | 1008.9 |